When you browse on this site, cookies collect data to enhance your experience and personalize the content and advertising you see.
Visit our Privacy Policy to learn more. By continuing to use the site, you agree to this use of cookies and data.
  • In Czech Republic
  • List of Countries
  • For 7 days
  • Water Temperature
  • Weather Map
  • Weather Widgets
  • user-avatar
    Login

    Hourly Weather Shkoder

    Today, 1 April, Wednesday

    Time Temperature Precipitation Wind Pressure Humidity
    00:00 0°C° 1.1 mm 4 mps 739 mmHg 87%
    01:00 -1°C° 0 mm 4 mps 738 mmHg 92%
    02:00 -1°C° 1.5 mm 4 mps 738 mmHg 93%
    03:00 -1°C° 1.5 mm 4 mps 738 mmHg 93%
    04:00 -1°C° 1.5 mm 4 mps 737 mmHg 94%
    05:00 -1°C° 1.7 mm 4 mps 737 mmHg 94%
    06:00 -1°C° 1.7 mm 4 mps 737 mmHg 94%
    07:00 -2°C° 1.7 mm 4 mps 737 mmHg 94%
    08:00 -1°C° 1.4 mm 4 mps 736 mmHg 94%
    09:00 -1°C° 1.4 mm 4 mps 736 mmHg 94%
    10:00 0°C° 1.4 mm 4 mps 736 mmHg 93%
    11:00 0°C° 0.8 mm 4 mps 736 mmHg 94%
    12:00 +2°C° 0.8 mm 3 mps 736 mmHg 94%
    13:00 +2°C° 0.8 mm 3 mps 736 mmHg 94%
    14:00 +2°C° 0.4 mm 3 mps 736 mmHg 93%
    15:00 +3°C° 0.4 mm 3 mps 736 mmHg 92%
    16:00 +4°C° 0.4 mm 2 mps 736 mmHg 91%
    17:00 +3°C° 0.1 mm 2 mps 736 mmHg 91%
    18:00 +3°C° 0.1 mm 2 mps 736 mmHg 91%
    19:00 +2°C° 0.1 mm 2 mps 737 mmHg 92%
    20:00 +2°C° 0 mm 2 mps 737 mmHg 90%
    21:00 +1°C° 0 mm 2 mps 738 mmHg 89%
    22:00 0°C° 0 mm 3 mps 738 mmHg 87%
    23:00 0°C° 0 mm 3 mps 738 mmHg 86%

    Tomorrow, 2 April, Thursday

    Time Temperature Precipitation Wind Pressure Humidity
    00:00 -1°C° 0 mm 3 mps 738 mmHg 85%
    01:00 -1°C° 0 mm 3 mps 739 mmHg 84%
    02:00 -1°C° 0 mm 3 mps 738 mmHg 84%
    03:00 -2°C° 0 mm 3 mps 738 mmHg 85%
    04:00 -2°C° 0 mm 3 mps 738 mmHg 85%
    05:00 -1°C° 0 mm 3 mps 738 mmHg 84%
    06:00 0°C° 0 mm 3 mps 738 mmHg 84%
    07:00 +2°C° 0 mm 2 mps 738 mmHg 83%
    08:00 +3°C° 0 mm 2 mps 738 mmHg 83%
    09:00 +4°C° 0 mm 2 mps 738 mmHg 83%
    10:00 +5°C° 0 mm 2 mps 738 mmHg 83%
    11:00 +6°C° 0 mm 2 mps 738 mmHg 82%
    12:00 +7°C° 0 mm 2 mps 738 mmHg 81%
    13:00 +7°C° 0 mm 2 mps 738 mmHg 80%
    14:00 +7°C° 0 mm 2 mps 737 mmHg 80%
    15:00 +7°C° 0 mm 2 mps 737 mmHg 81%
    16:00 +7°C° 0 mm 2 mps 737 mmHg 81%
    17:00 +6°C° 0 mm 2 mps 737 mmHg 83%
    18:00 +5°C° 0 mm 2 mps 737 mmHg 86%
    19:00 +5°C° 0 mm 1 mps 737 mmHg 88%
    20:00 +4°C° 0 mm 2 mps 737 mmHg 87%
    21:00 +4°C° 0 mm 2 mps 738 mmHg 86%
    22:00 +3°C° 0 mm 2 mps 738 mmHg 85%
    23:00 +3°C° 0 mm 2 mps 738 mmHg 84%

    Day after tomorrow, 3 April, Friday

    Time Temperature Precipitation Wind Pressure Humidity
    00:00 +4°C° 0 mm 1 mps 738 mmHg 83%
    01:00 +4°C° 0 mm 1 mps 738 mmHg 82%
    02:00 +4°C° 0 mm 1 mps 738 mmHg 81%
    03:00 +4°C° 0 mm 1 mps 737 mmHg 81%
    04:00 +4°C° 0 mm 1 mps 737 mmHg 80%
    05:00 +5°C° 0 mm 1 mps 738 mmHg 80%
    06:00 +6°C° 0 mm 1 mps 738 mmHg 80%
    07:00 +7°C° 0 mm 1 mps 738 mmHg 80%
    08:00 +8°C° 0 mm 1 mps 738 mmHg 77%
    09:00 +10°C° 0 mm 1 mps 738 mmHg 74%
    10:00 +11°C° 0 mm 1 mps 738 mmHg 72%
    11:00 +11°C° 0 mm 1 mps 738 mmHg 70%
    12:00 +12°C° 0 mm 1 mps 738 mmHg 68%
    13:00 +12°C° 0 mm 1 mps 738 mmHg 66%
    14:00 +12°C° 0 mm 1 mps 738 mmHg 66%
    15:00 +12°C° 0 mm 1 mps 737 mmHg 66%
    16:00 +12°C° 0 mm 1 mps 737 mmHg 65%
    17:00 +11°C° 0 mm 1 mps 737 mmHg 70%
    18:00 +9°C° 0 mm 2 mps 738 mmHg 75%
    19:00 +8°C° 0 mm 2 mps 738 mmHg 80%
    20:00 +8°C° 0 mm 2 mps 738 mmHg 79%
    21:00 +8°C° 0 mm 2 mps 739 mmHg 79%
    22:00 +8°C° 0 mm 2 mps 739 mmHg 79%
    23:00 +7°C° 0 mm 2 mps 739 mmHg 79%

    4 April, Saturday

    Time Temperature Precipitation Wind Pressure Humidity
    00:00 +7°C° 0 mm 2 mps 739 mmHg 80%
    01:00 +7°C° 0 mm 2 mps 739 mmHg 81%
    02:00 +7°C° 0 mm 2 mps 739 mmHg 81%
    03:00 +7°C° 0 mm 3 mps 739 mmHg 82%
    04:00 +7°C° 0 mm 3 mps 739 mmHg 82%
    05:00 +7°C° 0 mm 3 mps 739 mmHg 80%
    06:00 +8°C° 0 mm 3 mps 739 mmHg 79%
    07:00 +8°C° 0 mm 3 mps 739 mmHg 77%
    08:00 +8°C° 0 mm 4 mps 739 mmHg 73%
    09:00 +11°C° 0 mm 4 mps 739 mmHg 68%
    10:00 +12°C° 0 mm 5 mps 739 mmHg 64%
    11:00 +13°C° 0 mm 5 mps 739 mmHg 62%
    12:00 +14°C° 0 mm 5 mps 739 mmHg 61%
    13:00 +14°C° 0 mm 6 mps 739 mmHg 59%
    14:00 +14°C° 0 mm 6 mps 738 mmHg 60%
    15:00 +14°C° 0 mm 6 mps 738 mmHg 61%
    16:00 +14°C° 0 mm 6 mps 738 mmHg 62%
    17:00 +11°C° 0 mm 6 mps 738 mmHg 65%
    18:00 +10°C° 0 mm 6 mps 739 mmHg 69%
    19:00 +9°C° 0 mm 6 mps 739 mmHg 73%
    20:00 +8°C° 0 mm 5 mps 739 mmHg 73%
    21:00 +8°C° 0 mm 5 mps 739 mmHg 73%
    22:00 +7°C° 0 mm 4 mps 740 mmHg 73%
    23:00 +7°C° 0 mm 4 mps 740 mmHg 73%

    5 April, Sunday

    Time Temperature Precipitation Wind Pressure Humidity
    00:00 +7°C° 0 mm 4 mps 740 mmHg 73%
    01:00 +7°C° 0 mm 4 mps 739 mmHg 73%
    02:00 +7°C° 0 mm 4 mps 739 mmHg 74%
    03:00 +7°C° 0 mm 4 mps 739 mmHg 75%
    04:00 +7°C° 0 mm 4 mps 739 mmHg 76%
    05:00 +7°C° 0 mm 4 mps 739 mmHg 75%
    06:00 +8°C° 0 mm 4 mps 739 mmHg 75%
    07:00 +10°C° 0 mm 4 mps 739 mmHg 74%
    08:00 +10°C° 0 mm 5 mps 739 mmHg 72%
    09:00 +10°C° 0 mm 5 mps 739 mmHg 69%
    10:00 +11°C° 0 mm 6 mps 739 mmHg 67%
    11:00 +11°C° 0 mm 6 mps 739 mmHg 65%
    12:00 +13°C° 0 mm 6 mps 740 mmHg 63%
    13:00 +13°C° 0 mm 6 mps 740 mmHg 61%
    14:00 +12°C° 0 mm 7 mps 740 mmHg 61%
    15:00 +12°C° 0 mm 7 mps 740 mmHg 61%
    16:00 +11°C° 0 mm 7 mps 740 mmHg 62%
    17:00 +10°C° 0 mm 7 mps 740 mmHg 66%
    18:00 +9°C° 0 mm 6 mps 740 mmHg 70%
    19:00 +8°C° 0 mm 6 mps 741 mmHg 74%
    20:00 +8°C° 0 mm 6 mps 741 mmHg 73%
    21:00 +8°C° 0 mm 5 mps 742 mmHg 73%
    22:00 +8°C° 0 mm 5 mps 742 mmHg 72%
    23:00 +8°C° 0 mm 5 mps 743 mmHg 71%

    6 April, Monday

    Time Temperature Precipitation Wind Pressure Humidity
    00:00 +7°C° 0 mm 5 mps 743 mmHg 70%
    01:00 +7°C° 0 mm 5 mps 743 mmHg 69%
    02:00 +7°C° 0 mm 5 mps 743 mmHg 68%
    03:00 +7°C° 0 mm 5 mps 744 mmHg 67%
    04:00 +6°C° 0 mm 5 mps 744 mmHg 67%
    05:00 +6°C° 0 mm 5 mps 744 mmHg 66%
    06:00 +7°C° 0 mm 5 mps 744 mmHg 65%
    07:00 +7°C° 0 mm 5 mps 745 mmHg 65%
    08:00 +8°C° 0 mm 5 mps 745 mmHg 62%
    09:00 +9°C° 0 mm 5 mps 745 mmHg 60%
    10:00 +10°C° 0 mm 5 mps 745 mmHg 58%
    11:00 +12°C° 0 mm 5 mps 745 mmHg 56%
    12:00 +13°C° 0 mm 4 mps 745 mmHg 55%
    13:00 +14°C° 0 mm 4 mps 745 mmHg 53%
    14:00 +14°C° 0 mm 4 mps 745 mmHg 52%
    15:00 +14°C° 0 mm 4 mps 745 mmHg 50%
    16:00 +14°C° 0 mm 4 mps 745 mmHg 49%
    17:00 +13°C° 0 mm 5 mps 745 mmHg 51%
    18:00 +10°C° 0 mm 5 mps 746 mmHg 53%
    19:00 +9°C° 0 mm 5 mps 746 mmHg 55%
    20:00 +8°C° 0 mm 5 mps 746 mmHg 56%
    21:00 +7°C° 0 mm 4 mps 747 mmHg 57%
    22:00 +7°C° 0 mm 4 mps 747 mmHg 57%
    23:00 +6°C° 0 mm 4 mps 747 mmHg 58%
    Show more